Theta_e
342 343 343 350 350 350 349 350 349 350 350 350 350 350 348 349 351 350 351 350 351 351 351 351 347 348 350 351 351 349 350 350 350 350 350 350 350 350 349 347 341 347 348
342 343 348 350 350 350 349 350 349 350 350 350 350 348 350 350 350 350 351 348 350 351 350 349 348 349 346 348 351 351 350 351 351 351 350 349 349 349 348 347 340 345 344
342 345 348 347 350 350 349 349 349 350 350 349 348 348 351 349 348 346 350 350 349 350 349 349 349 349 351 347 346 346 347 348 351 349 346 347 348 350 350 349 348 348 347
342 346 346 346 350 350 349 349 350 351 349 350 349 350 351 351 349 351 350 350 350 350 350 351 350 351 351 348 350 352 351 348 347 348 347 346 346 349 349 349 348 347 347
346 348 347 346 349 349 350 349 351 350 350 350 350 351 351 351 350 351 351 351 351 350 347 347 350 350 351 349 352 350 349 347 347 346 345 345 347 350 349 349 348 347 347
346 347 349 349 350 349 349 349 348 350 350 350 350 351 351 351 349 347 350 349 351 351 344 344 345 345 347 348 350 350 348 343 345 346 348 346 349 350 349 348 346 341 341
343 345 349 349 351 350 351 351 351 351 350 350 352 350 352 351 351 350 350 349 350 352 351 347 346 345 350 351 351 350 346 343 344 345 345 346 346 348 350 347 344 343 343
346 346 345 349 349 349 349 351 350 351 349 350 346 347 349 348 349 347 350 349 348 349 350 349 345 344 343 348 350 346 345 342 340 334 343 348 347 347 347 345 341 341 345
349 350 349 348 350 351 351 351 350 351 347 351 348 351 350 351 347 347 348 348 347 347 348 345 342 343 344 346 351 344 339 343 341 338 336 340 340 345 345 344 337 332 331
345 347 349 351 349 350 349 351 350 347 345 349 347 352 352 349 350 350 347 348 347 346 346 342 341 343 343 344 348 341 337 329 330 331 335 338 343 343 341 332 331 330 331
347 345 348 348 349 349 345 346 346 344 348 349 349 351 351 350 348 347 350 350 348 345 337 338 340 341 342 343 345 346 341 340 335 331 330 331 332 332 329 329 330 332 334
350 348 347 347 346 348 346 339 339 342 344 343 346 348 347 346 346 346 350 347 347 337 337 338 339 339 339 339 342 344 344 340 331 331 329 329 329 330 330 330 332 334 336
348 348 350 347 349 344 344 340 340 341 343 345 342 344 343 342 342 343 343 343 343 343 339 338 338 339 342 344 345 346 344 343 336 326 327 328 328 329 331 333 334 336 338
348 348 349 346 346 345 342 342 344 342 343 341 342 343 342 340 341 343 344 344 342 341 341 341 341 342 343 343 342 342 342 342 335 326 326 327 328 331 333 335 337 339 340
346 347 347 343 344 342 341 341 339 340 338 340 343 343 339 340 341 342 344 341 341 343 344 344 343 344 344 341 341 339 341 338 332 326 326 328 331 333 335 337 339 340 341
347 347 345 341 343 342 342 340 339 340 339 340 342 341 339 340 340 342 341 341 342 344 345 345 344 345 343 340 340 339 339 337 329 326 328 330 333 334 335 337 339 340 341
346 346 344 344 342 340 340 341 340 339 338 336 340 340 341 343 343 341 343 344 344 345 344 344 343 344 343 340 340 340 340 339 336 331 331 334 335 337 337 338 338 339 340
345 346 345 344 344 343 340 340 336 335 336 336 340 341 343 344 342 344 343 345 345 344 347 348 346 345 342 342 342 340 339 340 341 341 338 337 337 336 336 337 339 340 340
345 346 346 345 345 345 342 335 335 337 338 338 342 342 344 345 342 343 343 343 343 345 345 349 346 342 342 341 342 341 341 341 340 342 343 342 340 341 343 345 344 345 345
346 346 346 346 346 345 345 343 340 338 340 342 344 343 345 344 345 344 344 343 344 344 348 349 345 343 342 342 342 343 343 342 341 342 343 343 343 343 345 343 344 344 345
345 345 346 346 346 345 345 344 343 345 344 343 344 346 346 345 345 345 344 342 345 345 349 349 344 345 346 347 347 344 343 343 342 341 342 342 343 343 344 344 345 344 344
345 345 345 345 345 344 344 344 344 345 346 345 346 346 345 346 344 344 345 340 345 346 350 349 346 345 343 347 346 342 346 343 343 343 344 343 343 344 345 346 348 348 347
345 345 345 344 343 343 345 346 345 346 346 348 348 348 346 347 345 345 346 338 344 346 347 349 348 347 345 344 347 346 347 348 345 343 344 344 345 344 345 346 349 350 348
344 345 343 345 344 346 346 345 344 344 345 346 348 347 348 347 346 347 347 339 343 346 346 348 347 348 347 347 343 342 342 342 347 350 341 339 338 342 342 343 341 347 347
344 344 344 343 344 345 346 346 344 344 345 345 345 346 347 348 346 346 346 344 343 346 347 350 347 346 347 346 348 342 342 340 342 341 346 342 342 339 340 340 343 344 346
343 343 344 343 344 344 346 346 346 345 346 346 345 345 347 348 347 345 347 347 344 343 348 349 347 344 347 349 345 343 344 344 339 339 339 337 334 336 343 339 345 346 346
Wind_Speed
11 11 11 10 10 11 11 11 12 12 14 15 15 15 15 15 15 16 15 15 15 15 15 16 14 13 13 14 15 16 15 15 16 16 15 16 17 16 15 14 14 14 14
17 14 12 11 11 12 11 12 13 13 15 16 15 15 15 16 15 16 15 15 15 15 17 16 15 13 14 15 15 14 14 14 14 15 15 15 16 15 14 14 15 14 13
17 15 12 11 11 12 12 13 13 13 15 16 16 15 14 15 15 15 16 15 15 16 17 16 14 15 15 16 17 16 16 16 17 16 17 16 15 14 13 14 13 14 13
18 15 13 12 12 12 13 13 13 13 15 15 15 14 13 13 13 13 15 15 14 16 16 16 16 14 12 14 15 17 16 15 16 17 17 16 13 13 13 14 13 13 12
18 15 13 13 12 12 12 13 13 14 14 13 13 13 13 12 12 13 13 14 14 13 15 15 14 14 14 15 16 15 14 15 15 15 16 14 13 13 12 13 13 12 12
19 17 14 13 12 11 11 13 14 14 13 13 13 12 12 11 11 12 12 12 13 11 14 14 15 14 13 15 14 13 14 15 15 15 15 12 12 12 11 11 11 9 8
18 15 14 13 12 11 12 13 13 13 13 13 13 12 12 11 11 11 12 11 11 11 11 12 14 14 11 13 12 11 11 12 12 13 13 13 12 10 10 9 8 8 7
18 14 12 11 12 11 12 12 13 12 12 12 12 11 10 10 11 11 11 11 10 9 10 12 14 16 14 12 11 11 10 10 10 10 11 11 10 8 8 7 7 6 6
16 15 12 11 10 10 11 12 12 12 14 12 11 10 10 10 11 11 11 10 10 9 10 11 13 12 12 8 8 8 8 7 7 8 8 8 8 7 8 7 7 7 6
14 14 14 13 12 11 10 13 12 12 13 13 11 11 10 10 10 10 11 11 10 9 10 9 10 10 10 10 6 6 9 7 6 7 7 7 6 5 4 5 6 6 6
13 14 14 14 13 12 10 11 10 10 12 11 12 11 12 11 10 11 9 10 10 10 9 8 8 8 7 8 6 4 6 6 5 5 5 5 5 5 5 6 6 6 6
14 13 14 13 14 14 12 15 12 11 12 11 11 11 11 10 10 11 10 10 10 11 8 7 6 4 3 4 5 3 5 5 4 3 4 4 4 5 6 6 6 5 5
16 14 13 14 15 16 16 17 15 15 12 11 11 10 9 9 9 8 9 8 8 8 7 4 3 1 2 3 3 2 4 2 4 2 3 4 4 6 5 5 5 4 4
16 14 14 14 15 13 15 14 14 14 13 12 10 8 7 8 8 6 6 5 5 7 7 4 3 3 4 4 2 1 2 1 4 2 3 4 4 5 5 3 3 3 4
19 16 16 16 15 13 14 14 13 13 13 12 9 8 7 7 6 3 4 6 7 7 6 6 6 7 6 3 2 3 1 2 3 2 3 3 4 3 3 2 2 3 5
18 18 17 16 13 14 15 15 14 13 13 10 9 7 6 3 2 1 4 6 6 6 6 5 4 6 7 3 6 6 5 4 5 4 4 3 2 1 1 2 3 4 6
20 20 19 17 15 14 14 13 13 13 11 12 10 9 4 1 3 5 5 5 5 5 5 3 2 2 4 6 5 7 8 7 6 5 4 3 2 1 3 4 7 8 10
23 23 20 18 16 13 11 11 13 14 13 13 10 8 5 4 5 5 5 7 6 5 5 4 1 3 4 4 5 5 3 2 3 2 2 3 3 4 6 8 10 10 13
24 25 22 20 16 15 13 11 11 13 13 13 10 7 6 4 5 3 5 4 4 5 6 7 4 6 5 5 4 3 2 2 2 4 5 7 8 8 10 11 14 14 12
23 23 22 20 19 17 13 11 10 11 11 12 11 10 8 5 2 3 5 3 4 5 5 5 5 5 4 4 2 1 3 2 3 6 7 8 9 10 12 11 13 12 10
23 23 20 20 21 18 17 16 13 12 10 10 9 9 9 6 5 4 4 3 3 4 4 5 7 7 5 3 2 3 1 3 6 8 9 7 8 10 12 12 13 9 7
27 26 23 23 23 21 19 17 13 11 11 11 9 8 11 9 7 4 3 4 4 3 4 6 4 4 6 4 4 2 2 2 2 6 7 9 11 9 7 9 13 12 6
28 28 28 25 24 22 18 16 13 10 6 7 10 10 9 10 7 5 3 5 5 4 3 5 6 2 2 6 5 3 2 2 2 3 3 1 3 3 4 7 11 12 8
30 32 29 27 26 22 20 20 18 16 12 8 11 10 10 10 7 4 3 6 7 5 5 4 4 3 2 3 5 5 5 2 2 1 2 2 3 6 5 7 7 9 7
27 32 29 28 28 25 23 20 19 18 15 12 11 10 9 10 9 6 4 5 6 7 6 4 3 3 4 3 3 3 3 4 3 2 1 4 6 5 8 2 5 6 5
21 29 28 27 27 25 24 21 19 17 16 13 11 10 9 9 9 10 7 6 6 8 8 6 3 4 7 5 4 1 4 2 2 2 1 2 4 5 5 5 5 9 10
Wind_Direction
160 151 146 130 122 118 117 112 109 113 119 119 116 114 115 113 108 110 107 108 107 105 103 100 105 98 104 107 107 107 108 103 104 103 98 99 98 96 96 96 100 100 101
152 148 136 127 124 124 124 122 120 118 118 116 114 118 119 115 115 111 110 108 103 105 102 100 99 98 96 103 109 110 111 112 107 106 102 100 96 97 99 99 97 98 100
145 140 132 132 132 129 128 122 123 117 117 116 117 123 117 121 116 112 108 108 109 103 104 103 103 102 94 93 96 103 98 96 96 96 98 96 97 93 94 93 96 98 98
141 138 137 139 136 134 130 128 121 121 121 123 128 126 122 112 112 105 103 99 100 104 103 102 96 95 94 93 96 95 97 103 106 103 98 97 95 97 96 97 94 93 92
145 143 141 141 134 130 129 128 124 123 129 125 124 124 119 113 108 101 94 97 96 98 101 101 98 97 94 92 99 93 99 105 108 108 105 105 100 93 92 88 86 86 85
151 149 144 145 137 134 129 126 128 131 128 126 125 119 113 109 101 99 98 100 97 100 103 97 92 88 90 95 95 93 101 107 110 109 102 98 94 95 92 85 85 90 91
152 153 149 146 142 139 135 134 137 137 135 132 132 129 117 109 102 102 98 99 103 102 98 89 83 85 96 101 93 96 104 110 110 108 103 100 95 93 97 88 92 83 83
153 151 151 151 147 148 144 145 142 145 138 136 128 126 126 117 109 108 100 99 100 101 97 88 81 81 93 95 86 86 101 108 108 105 109 108 102 96 93 81 74 84 79
153 151 155 157 153 153 149 148 146 149 136 129 127 127 126 114 103 105 97 95 97 101 98 98 91 90 87 91 91 75 90 101 95 98 108 106 89 73 69 67 67 66 58
166 165 157 155 162 151 161 150 150 149 136 135 130 127 120 112 105 103 103 97 99 103 106 107 101 95 91 79 99 65 67 77 84 95 102 105 107 94 86 69 68 61 54
170 171 168 164 165 154 148 145 144 144 134 138 128 124 129 128 122 109 103 102 100 105 118 113 104 95 89 72 66 72 47 50 61 91 99 101 101 92 77 67 61 52 41
179 177 172 170 160 149 141 150 148 146 147 149 132 133 131 124 117 112 106 104 98 103 112 110 106 100 76 47 49 32 14 27 53 92 106 103 99 87 74 64 55 43 30
181 180 177 173 168 160 158 164 160 161 157 148 143 140 129 120 116 108 95 89 87 92 109 129 139 165 325 329 320 346 22 6 39 80 109 110 92 85 71 57 46 36 16
184 179 179 177 174 167 160 161 160 162 159 153 146 141 133 129 120 102 81 63 64 81 71 78 72 35 348 313 298 307 13 56 40 92 121 110 92 82 71 60 45 25 4
181 180 181 178 177 172 166 162 161 163 163 160 159 155 149 142 128 93 41 55 54 50 54 48 59 41 30 49 314 260 267 66 49 87 107 108 101 93 85 62 23 353 347
178 179 179 178 179 176 174 168 166 163 166 174 170 164 158 139 141 65 66 47 61 58 45 41 37 32 35 66 56 94 91 82 53 78 95 92 95 92 352 319 319 325 331
183 179 179 179 176 177 174 176 177 176 180 176 169 163 163 153 129 104 73 69 63 48 42 18 343 13 60 98 78 96 90 84 70 66 74 78 61 15 322 305 312 323 325
185 187 184 183 184 181 178 177 187 178 175 171 176 174 164 139 125 91 85 94 67 56 36 37 85 147 129 96 84 91 134 81 65 34 3 344 335 324 316 315 313 321 326
191 188 191 196 197 184 172 162 164 172 173 173 178 176 174 135 114 78 118 103 47 46 37 35 85 125 133 133 99 62 23 355 289 313 318 310 309 316 314 315 318 322 326
194 189 194 198 204 188 180 177 167 170 175 182 179 178 169 163 109 129 147 105 67 53 41 38 90 131 155 169 184 290 270 302 309 303 310 328 311 314 324 317 319 317 317
193 188 195 182 176 178 184 186 191 190 198 195 188 189 198 187 156 146 162 168 108 81 55 55 110 95 102 112 121 93 217 247 280 289 292 302 308 317 326 323 325 308 306
194 190 187 178 175 181 182 188 195 197 204 200 197 196 188 193 189 171 190 187 158 107 87 80 105 81 62 121 115 106 18 48 276 312 284 277 295 313 327 334 338 331 310
199 194 187 183 175 177 188 189 190 184 171 184 185 190 195 194 185 191 175 183 168 154 153 82 75 94 138 72 124 151 108 216 303 352 11 333 329 337 350 21 20 32 50
201 201 193 186 182 183 184 189 191 193 198 195 189 194 196 199 195 205 182 177 179 167 167 116 76 80 166 158 89 90 92 135 169 325 265 248 347 344 336 330 356 39 45
198 204 202 197 192 189 189 192 195 200 207 204 197 199 195 199 206 220 230 200 192 182 178 146 101 108 105 155 190 164 136 93 98 104 288 308 270 297 341 328 16 4 17
196 205 203 197 197 194 192 194 199 199 197 203 202 212 213 211 216 223 227 218 213 200 193 184 136 131 98 99 84 145 181 175 158 144 138 294 293 287 11 54 56 24 4